When you browse on this site, cookies collect data to enhance your experience and personalize the content and advertising you see.
Visit our Privacy Policy to learn more. By continuing to use the site, you agree to this use of cookies and data.
  • In Romania
  • List of Countries
  • For 7 days
  • Water Temperature
  • Satellite Maps
  • Weather Map
  • Weather Widgets
  • user-avatar
    Login

    Hourly Weather Vidin

    Today, 19 April, Friday

    Time Temperature Precipitation Wind Pressure Humidity
    00:00 +8°C° 0 mm 0 mps 768 mmHg 85%
    01:00 +8°C° 0 mm 0 mps 768 mmHg 84%
    02:00 +7°C° 0 mm 0 mps 767 mmHg 89%
    03:00 +7°C° 0 mm 0 mps 767 mmHg 88%
    04:00 +8°C° 0 mm 1 mps 767 mmHg 87%
    05:00 +8°C° 0 mm 1 mps 767 mmHg 87%
    06:00 +9°C° 0 mm 1 mps 767 mmHg 80%
    07:00 +10°C° 0 mm 2 mps 767 mmHg 74%
    08:00 +12°C° 0 mm 2 mps 767 mmHg 67%
    09:00 +13°C° 0 mm 3 mps 766 mmHg 61%
    10:00 +16°C° 0 mm 3 mps 766 mmHg 56%
    11:00 +18°C° 0 mm 4 mps 765 mmHg 50%
    12:00 +19°C° 0 mm 4 mps 765 mmHg 47%
    13:00 +20°C° 0 mm 5 mps 764 mmHg 45%
    14:00 +21°C° 0 mm 5 mps 764 mmHg 42%
    15:00 +21°C° 0 mm 5 mps 764 mmHg 44%
    16:00 +20°C° 0 mm 5 mps 763 mmHg 46%
    17:00 +20°C° 0 mm 6 mps 763 mmHg 47%
    18:00 +19°C° 0 mm 5 mps 763 mmHg 51%
    19:00 +17°C° 0 mm 4 mps 764 mmHg 54%
    20:00 +15°C° 0 mm 4 mps 764 mmHg 58%
    21:00 +14°C° 0.1 mm 3 mps 764 mmHg 62%
    22:00 +13°C° 0.1 mm 3 mps 765 mmHg 67%
    23:00 +12°C° 0.1 mm 3 mps 765 mmHg 71%

    Tomorrow, 20 April, Saturday

    Time Temperature Precipitation Wind Pressure Humidity
    00:00 +11°C° 0 mm 3 mps 766 mmHg 77%
    01:00 +10°C° 0 mm 2 mps 766 mmHg 83%
    02:00 +9°C° 0 mm 2 mps 766 mmHg 88%
    03:00 +8°C° 0 mm 2 mps 766 mmHg 90%
    04:00 +8°C° 0 mm 2 mps 766 mmHg 91%
    05:00 +7°C° 0 mm 2 mps 767 mmHg 92%
    06:00 +8°C° 0 mm 2 mps 767 mmHg 88%
    07:00 +9°C° 0 mm 2 mps 767 mmHg 84%
    08:00 +9°C° 0 mm 2 mps 767 mmHg 81%
    09:00 +12°C° 0 mm 2 mps 767 mmHg 74%
    10:00 +13°C° 0 mm 1 mps 767 mmHg 68%
    11:00 +14°C° 0 mm 1 mps 767 mmHg 61%
    12:00 +15°C° 0.1 mm 2 mps 767 mmHg 57%
    13:00 +16°C° 0.1 mm 2 mps 767 mmHg 52%
    14:00 +17°C° 0.1 mm 2 mps 766 mmHg 48%
    15:00 +17°C° 0 mm 2 mps 766 mmHg 48%
    16:00 +17°C° 0 mm 2 mps 766 mmHg 48%
    17:00 +17°C° 0 mm 3 mps 766 mmHg 48%
    18:00 +14°C° 0 mm 3 mps 766 mmHg 53%
    19:00 +12°C° 0 mm 3 mps 766 mmHg 59%
    20:00 +11°C° 0 mm 3 mps 767 mmHg 64%
    21:00 +10°C° 0 mm 2 mps 767 mmHg 65%
    22:00 +10°C° 0 mm 2 mps 767 mmHg 65%
    23:00 +9°C° 0 mm 2 mps 767 mmHg 66%

    Day after tomorrow, 21 April, Sunday

    Time Temperature Precipitation Wind Pressure Humidity
    00:00 +10°C° 0 mm 1 mps 767 mmHg 65%
    01:00 +9°C° 0 mm 1 mps 767 mmHg 64%
    02:00 +9°C° 0 mm 1 mps 766 mmHg 63%
    03:00 +9°C° 0 mm 1 mps 766 mmHg 64%
    04:00 +9°C° 0 mm 1 mps 766 mmHg 66%
    05:00 +8°C° 0 mm 1 mps 766 mmHg 67%
    06:00 +9°C° 0 mm 1 mps 766 mmHg 65%
    07:00 +10°C° 0 mm 1 mps 766 mmHg 64%
    08:00 +12°C° 0 mm 1 mps 766 mmHg 62%
    09:00 +13°C° 0 mm 1 mps 765 mmHg 59%
    10:00 +15°C° 0 mm 1 mps 765 mmHg 55%
    11:00 +17°C° 0 mm 2 mps 764 mmHg 52%
    12:00 +17°C° 0 mm 2 mps 764 mmHg 48%
    13:00 +18°C° 0 mm 2 mps 763 mmHg 45%
    14:00 +19°C° 0 mm 2 mps 763 mmHg 42%
    15:00 +20°C° 0 mm 1 mps 763 mmHg 41%
    16:00 +20°C° 0 mm 1 mps 762 mmHg 41%
    17:00 +20°C° 0 mm 1 mps 762 mmHg 40%
    18:00 +18°C° 0 mm 1 mps 762 mmHg 45%
    19:00 +16°C° 0 mm 1 mps 762 mmHg 50%
    20:00 +14°C° 0 mm 1 mps 762 mmHg 55%
    21:00 +13°C° 0 mm 1 mps 762 mmHg 59%
    22:00 +13°C° 0 mm 1 mps 762 mmHg 62%
    23:00 +12°C° 0 mm 1 mps 763 mmHg 65%

    22 April, Monday

    Time Temperature Precipitation Wind Pressure Humidity
    00:00 +11°C° 0 mm 1 mps 763 mmHg 68%
    01:00 +11°C° 0 mm 1 mps 762 mmHg 70%
    02:00 +10°C° 0 mm 1 mps 762 mmHg 73%
    03:00 +10°C° 0 mm 1 mps 762 mmHg 77%
    04:00 +9°C° 0 mm 1 mps 762 mmHg 80%
    05:00 +7°C° 0 mm 2 mps 762 mmHg 84%
    06:00 +8°C° 0 mm 2 mps 762 mmHg 81%
    07:00 +9°C° 0 mm 2 mps 762 mmHg 77%
    08:00 +10°C° 0 mm 2 mps 762 mmHg 74%
    09:00 +12°C° 0 mm 3 mps 762 mmHg 68%
    10:00 +14°C° 0 mm 3 mps 762 mmHg 62%
    11:00 +17°C° 0 mm 4 mps 762 mmHg 56%
    12:00 +18°C° 0 mm 4 mps 761 mmHg 53%
    13:00 +19°C° 0 mm 5 mps 761 mmHg 50%
    14:00 +20°C° 0 mm 6 mps 760 mmHg 46%
    15:00 +20°C° 0 mm 6 mps 760 mmHg 48%
    16:00 +20°C° 0 mm 7 mps 760 mmHg 49%
    17:00 +18°C° 0 mm 7 mps 760 mmHg 50%
    18:00 +17°C° 0 mm 7 mps 760 mmHg 54%
    19:00 +15°C° 0 mm 6 mps 760 mmHg 58%
    20:00 +14°C° 0 mm 6 mps 761 mmHg 61%
    21:00 +13°C° 0 mm 6 mps 761 mmHg 63%
    22:00 +13°C° 0 mm 6 mps 761 mmHg 65%
    23:00 +11°C° 0 mm 6 mps 761 mmHg 67%

    23 April, Tuesday

    Time Temperature Precipitation Wind Pressure Humidity
    00:00 +11°C° 0 mm 6 mps 761 mmHg 66%
    01:00 +10°C° 0 mm 6 mps 762 mmHg 66%
    02:00 +10°C° 0 mm 6 mps 762 mmHg 66%
    03:00 +9°C° 0.1 mm 6 mps 762 mmHg 64%
    04:00 +8°C° 0.1 mm 6 mps 762 mmHg 63%
    05:00 +8°C° 0.1 mm 6 mps 762 mmHg 62%
    06:00 +8°C° 0.2 mm 6 mps 763 mmHg 64%
    07:00 +8°C° 0.2 mm 6 mps 763 mmHg 66%
    08:00 +8°C° 0.2 mm 6 mps 763 mmHg 68%
    09:00 +9°C° 0 mm 6 mps 763 mmHg 66%
    10:00 +11°C° 0 mm 7 mps 763 mmHg 64%
    11:00 +12°C° 0 mm 7 mps 762 mmHg 62%
    12:00 +14°C° 0 mm 7 mps 762 mmHg 60%
    13:00 +15°C° 0 mm 7 mps 761 mmHg 59%
    14:00 +16°C° 0 mm 7 mps 761 mmHg 57%
    15:00 +16°C° 0 mm 6 mps 761 mmHg 59%
    16:00 +16°C° 0 mm 6 mps 760 mmHg 60%
    17:00 +16°C° 0 mm 5 mps 760 mmHg 62%
    18:00 +16°C° 0 mm 5 mps 761 mmHg 63%
    19:00 +15°C° 0 mm 5 mps 761 mmHg 64%
    20:00 +14°C° 0 mm 6 mps 761 mmHg 64%
    21:00 +13°C° 0.1 mm 5 mps 762 mmHg 67%
    22:00 +13°C° 0.1 mm 4 mps 762 mmHg 69%
    23:00 +12°C° 0.1 mm 4 mps 762 mmHg 71%

    24 April, Wednesday

    Time Temperature Precipitation Wind Pressure Humidity
    00:00 +11°C° 0.1 mm 3 mps 763 mmHg 74%
    01:00 +10°C° 0.1 mm 3 mps 763 mmHg 77%
    02:00 +9°C° 0.1 mm 3 mps 763 mmHg 80%
    03:00 +9°C° 0 mm 3 mps 764 mmHg 81%
    04:00 +8°C° 0 mm 2 mps 764 mmHg 81%
    05:00 +8°C° 0 mm 2 mps 764 mmHg 81%
    06:00 +9°C° 0 mm 2 mps 764 mmHg 81%
    07:00 +9°C° 0 mm 3 mps 764 mmHg 80%
    08:00 +10°C° 0 mm 3 mps 765 mmHg 79%
    09:00 +11°C° 0 mm 3 mps 764 mmHg 78%
    10:00 +12°C° 0 mm 3 mps 764 mmHg 76%
    11:00 +12°C° 0 mm 3 mps 764 mmHg 75%
    12:00 +13°C° 0 mm 3 mps 764 mmHg 74%
    13:00 +14°C° 0 mm 3 mps 764 mmHg 72%
    14:00 +16°C° 0 mm 3 mps 763 mmHg 71%
    15:00 +17°C° 0 mm 3 mps 763 mmHg 70%
    16:00 +17°C° 0 mm 3 mps 763 mmHg 70%
    17:00 +18°C° 0 mm 2 mps 763 mmHg 70%
    18:00 +17°C° 0 mm 3 mps 763 mmHg 72%
    19:00 +16°C° 0 mm 3 mps 763 mmHg 74%
    20:00 +16°C° 0 mm 3 mps 763 mmHg 76%
    21:00 +16°C° 0 mm 3 mps 764 mmHg 75%
    22:00 +14°C° 0 mm 4 mps 764 mmHg 75%
    23:00 +14°C° 0 mm 4 mps 765 mmHg 74%
    Show more